"Pseudo-MPEC" for A11d6Fu

Created 2024 Nov 4 22:31:03 UT using Find_Orb

Click here for an explanation of pseudo-MPECs

 
 Astrometry: 
     A11d6Fu* C2024 10 20.19906600 07 41.575+00 35 56.87   ~AKLl 14.31oVNEOCPW68
     A11d6Fu  C2024 10 20.21092800 12 13.608+00 30 57.10   ~AKLl 14.76oVNEOCPW68
     A11d6Fu  C2024 10 20.21409700 13 26.657+00 29 37.90   ~AKLl 14.79oVNEOCPW68
     A11d6Fu  C2024 10 20.22186500 16 26.407+00 26 24.97   ~AKLl 15.13oVNEOCPW68
     A11d6Fu  C2024 10 20.23967500 23 22.858+00 19 13.40   ~AKLl 15.73oVNEOCPW68
     A11d6Fu  C2024 10 20.24421000 25 09.487+00 17 26.20   ~AKLl 15.80oVNEOCPW68

Station data:
(W68) ATLAS Chile, Rio Hurtado  (S30.471010 W70.764980)  Chile.  Observers L.
   Denneau, R. Siverd, J. Tonry, H. Weiland. Measurers L. Denneau, N.
   Erasmus, A. Fitzsimmons, A. Lawrence, J. Robinson, R. Siverd, J. Tonry, H.
   Weiland. 0.5-m reflector + CCD.

Orbital elements:  A11d6Fu
   Perigee 2024 Oct 19.27332 +/- 0.0435 TT =  6:33:34 (JD 2460602.77332)
Epoch 2024 Oct 20.0 TT = JDT 2460603.5                           AutoNEOCP
M 149.24418507 +/- 4.1              (J2000 equator)
n 205.37773825 +/- 8.04             Peri.   20.71360 +/- 2.2
a 61409.3633 +/- 1601               Node   157.50870 +/- 0.39
e   0.3231319 +/- 0.0198            Incl.    3.88034 +/- 0.030
P2524.082m/1.753d          H 30.80  G  0.15   U 14.1
q 41566.0373 +/- 2299    Q 81252.6893 +/- 915
From 6 observations 2024 Oct. 20 (65.0 min); mean residual 1".10
Residuals in arcseconds: 
241020 W68  .43+  .14-    241020 W68  .35-  .23+    241020 W68  3.0+  .26-    
241020 W68  .34-  .21+    241020 W68  .48-  .27-    241020 W68  2.2-  .24+    

Ephemerides (geocentric):
Date (UTC) HH   RA             Dec           delta  r     elong  mag " sig PA
---- --------  ------------   ------------  ------ ------ -----  --- --------
2024 11 04 23  00 06 49.345   -01 39 43.17   81113 0.9920 138.2 16.1 513'  93
2024 11 05 00  00 25 26.222   -01 56 23.22   80809 0.9920 142.1 16.0 518'  93
2024 11 05 01  00 44 15.443   -02 12 27.07   80253 0.9920 146.0 15.8 527'  93
2024 11 05 02  01 03 24.467   -02 27 52.37   79445 0.9920 149.7 15.7 538'  93
2024 11 05 03  01 23 01.308   -02 42 35.40   78386 0.9920 153.2 15.6 553'  93
2024 11 05 04  01 43 14.794   -02 56 30.66   77077 0.9920 156.4 15.4 572'  92
2024 11 05 05  02 04 14.851   -03 09 30.29   75520 0.9920 158.9 15.3 595'  92
2024 11 05 06  02 26 12.868   -03 21 23.29   73717 0.9919 160.5 15.2 624'  92
2024 11 05 07  02 49 22.130   -03 31 54.43   71674 0.9919 160.6 15.2 658'  91
2024 11 05 08  03 13 58.353   -03 40 42.77   69399 0.9919 159.1 15.1 700'  91
2024 11 05 09  03 40 20.336   -03 47 19.69   66903 0.9919 155.8 15.2 752'  91
2024 11 05 10  04 08 50.732   -03 51 06.14   64203 0.9918 151.0 15.2 814'  90
2024 11 05 11  04 39 56.888   -03 51 09.26   61327 0.9918 145.0 15.3 890'  90
2024 11 05 12  05 14 11.614   -03 46 18.50   58311 0.9917 137.8 15.4 981'  89
2024 11 05 13  05 52 13.503   -03 35 02.13   55214 0.9916 129.4 15.5  18d  88
2024 11 05 14  06 34 46.007   -03 15 27.14   52115 0.9916 119.7 15.6  20d  88
2024 11 05 15  07 22 33.701   -02 45 28.66   49127 0.9915 108.6 15.9  23d  87
2024 11 05 16  08 16 13.346   -02 03 19.84   46401 0.9914  96.0 16.2  25d  87
2024 11 05 17  09 15 57.333   -01 08 34.41   44125 0.9913  82.0 16.7  27d  86
2024 11 05 18  10 21 10.655   -00 03 35.97   42504 0.9912  66.7 17.4  28d  86
2024 11 05 19  11 30 12.043   +01 05 21.49   41722 0.9912  50.8 18??  29d  86
2024 11 05 20  12 40 19.317   +02 09 18.03   41878 0.9911  35.6 20??  28d  87
2024 11 05 21  13 48 29.695   +02 59 55.75   42952 0.9911  23.5 23??  26d  88
2024 11 05 22  14 52 14.338   +03 33 00.18   44810 0.9910  19.6 24??  24d  89
2024 11 05 23  15 50 10.611   +03 48 54.41   47257 0.9910  25.5 22??  21d  90
2024 11 06 00  16 41 59.293   +03 50 50.10   50089 0.9910  35.0 21??  19d  90
2024 11 06 01  17 28 02.544   +03 42 41.63   53129 0.9910  44.8 19??  17d  91
2024 11 06 02  18 09 01.634   +03 27 53.94   56239 0.9910  53.9 19?? 953'  92
2024 11 06 03  18 45 42.328   +03 09 00.73   59317 0.9911  62.3 18.4 875'  92
2024 11 06 04  19 18 47.573   +02 47 48.03   62292 0.9911  70.0 18.0 811'  93
2024 11 06 05  19 48 54.772   +02 25 25.57   65115 0.9911  77.0 17.7 758'  93
2024 11 06 06  20 16 35.377   +02 02 37.70   67750 0.9912  83.5 17.5 714'  93
2024 11 06 07  20 42 15.456   +01 39 51.90   70175 0.9912  89.5 17.3 679'  94
2024 11 06 08  21 06 16.542   +01 17 24.71   72374 0.9912  95.1 17.2 649'  94
2024 11 06 09  21 28 56.502   +00 55 25.66   74338 0.9913 100.4 17.0 626'  94
2024 11 06 10  21 50 30.289   +00 33 59.89   76059 0.9913 105.5 16.9 607'  94
2024 11 06 11  22 11 10.576   +00 13 09.79   77534 0.9914 110.3 16.8 592'  94
2024 11 06 12  22 31 08.266   -00 07 03.84   78760 0.9914 114.9 16.7 581'  94
2024 11 06 13  22 50 32.917   -00 26 41.13   79736 0.9914 119.4 16.6 572'  94
2024 11 06 14  23 09 33.071   -00 45 42.63   80459 0.9914 123.7 16.5 568'  94
2024 11 06 15  23 28 16.545   -01 04 08.97   80931 0.9915 127.9 16.4 565'  94
2024 11 06 16  23 46 50.670   -01 22 00.63   81150 0.9915 132.0 16.3 566'  94
2024 11 06 17  00 05 22.503   -01 39 17.69   81117 0.9915 136.1 16.1 570'  93
2024 11 06 18  00 23 59.031   -01 55 59.68   80832 0.9915 140.1 16.0 576'  93
2024 11 06 19  00 42 47.360   -02 12 05.34   80295 0.9915 144.0 15.9 586'  93
2024 11 06 20  01 01 54.921   -02 27 32.40   79505 0.9915 147.7 15.8 599'  93
2024 11 06 21  01 21 29.687   -02 42 17.22   78465 0.9915 151.4 15.6 616'  93
2024 11 06 22  01 41 40.417   -02 56 14.42   77174 0.9915 154.7 15.5 638'  92